FW9728 Weather Reports


time (UTC)temp
C
wind
direction
speed
KPH
gust
KPH
rain 1hr
cm
rain 24hr
cm
rain mn
cm
humidity
%
barometer
mb
20260505124541 -17 0.0 0.0 0.00 0.00 0.00 1007.9
20260505123048 -17 0.0 0.0 0.00 0.00 0.00 1007.8
20260505121540 -17 0.0 0.0 0.00 0.00 0.00 1007.6
20260505120045 -17 0.0 0.0 0.00 0.00 0.00 1007.5
20260505114544 -17 0.0 0.0 0.00 0.00 0.00 1007.2
20260505113035 -17 0.0 0.0 0.00 0.00 0.00 1006.8
20260505111535 -17 0.0 0.0 0.00 0.00 0.00 85 1006.7
20260505101545 18 199 0.0 11.3 0.00 0.00 0.00 83 1006.3
20260505100038 18 0 0.0 4.8 0.00 0.00 0.00 83 1006.5
20260505094537 18 233 0.0 9.7 0.00 0.00 0.00 82 1006.6
20260505093038 18 0 0.0 16.1 0.00 0.00 0.00 81 1006.4
20260505091537 18 0 0.0 4.8 0.00 0.00 0.00 81 1006.3
20260505090034 18 161 1.6 9.7 0.00 0.00 0.00 80 1006.6
20260505084535 18 158 0.0 6.4 0.00 0.00 0.00 80 1006.6
20260505083035 18 189 0.0 8.0 0.00 0.00 0.00 79 1006.7
20260505081532 18 148 0.0 6.4 0.00 0.00 0.00 78 1007.2
20260505080036 19 189 1.6 11.3 0.00 0.00 0.00 77 1007.3
20260505074537 19 138 0.0 8.0 0.00 0.00 0.00 76 1007.7
20260505073044 19 0 1.6 4.8 0.00 0.00 0.00 76 1007.5
20260505071545 19 0 0.0 3.2 0.00 0.00 0.00 75 1007.7
20260505070034 19 0 0.0 3.2 0.00 0.00 0.00 75 1008.0
20260505064539 19 38 0.0 6.4 0.00 0.00 0.00 75 1008.0
20260505063038 19 0 0.0 3.2 0.00 0.00 0.00 74 1008.3
20260505061536 18 0 0.0 6.4 0.00 0.00 0.00 74 1008.3
20260505060045 18 0 0.0 3.2 0.00 0.00 0.00 74 1008.5
20260505054536 18 304 0.0 1.6 0.00 0.00 0.00 74 1008.7
20260505053034 18 0 0.0 0.0 0.00 0.00 0.00 74 1008.9
20260505051550 18 0 0.0 1.6 0.00 0.00 0.00 74 1009.0
20260505041537 18 0 0.0 3.2 0.00 0.00 0.00 75 1009.5
20260505040040 17 0 0.0 3.2 0.00 0.00 0.00 76 1009.5
20260505034540 18 0 0.0 4.8 0.00 0.00 0.00 76 1009.6
20260505033037 17 64 0.0 1.6 0.00 0.00 0.00 77 1009.8
20260505031535 18 0 0.0 0.0 0.00 0.00 0.00 77 1009.9
20260505030035 18 0 0.0 0.0 0.00 0.00 0.00 76 1009.7
20260505024537 18 212 0.0 1.6 0.00 0.00 0.00 75 1009.5
20260505023038 18 0 0.0 0.0 0.00 0.00 0.00 74 1009.2
20260505021536 19 0 0.0 1.6 0.00 0.00 0.00 72 1008.9
20260505020035 19 0 0.0 0.0 0.00 0.00 0.00 71 1008.9
20260505014536 20 0 0.0 1.6 0.00 0.00 0.00 69 1008.8
20260505013057 20 36 0.0 3.2 0.00 0.00 0.00 68 1008.7
20260505011535 20 0 0.0 1.6 0.00 0.00 0.00 68 1008.5
20260505010038 21 0 0.0 1.6 0.00 0.00 0.00 66 1008.4
20260505004537 21 0 0.0 1.6 0.00 0.00 0.00 65 1008.5
20260505003035 22 0 0.0 1.6 0.00 0.00 0.00 63 1008.6
20260505001537 22 0 0.0 3.2 0.00 0.00 0.00 63 1008.6
20260505000051 22 0 0.0 1.6 0.00 0.00 0.00 62 1008.7
20260504234538 22 0 0.0 1.6 0.00 0.00 0.00 61 1008.9
20260504233041 22 0 0.0 6.4 0.00 0.00 0.00 62 1009.0
20260504231535 23 0 0.0 9.7 0.00 0.00 0.00 59 1009.3
20260504230035 23 0 0.0 6.4 0.00 0.00 0.00 57 1009.4
20260504224537 23 191 0.0 3.2 0.00 0.00 0.00 58 1009.7
20260504223038 23 0 0.0 8.0 0.00 0.00 0.00 56 1009.7
20260504221535 23 0 0.0 12.9 0.00 0.00 0.00 58 1009.6
20260504220041 23 207 1.6 9.7 0.00 0.00 0.00 57 1009.8
20260504214541 23 266 1.6 9.7 0.00 0.00 0.00 56 1009.9
20260504213035 24 318 1.6 9.7 0.00 0.00 0.00 55 1009.9
20260504211539 24 182 0.0 8.0 0.00 0.00 0.00 56 1010.1
20260504210037 24 150 0.0 6.4 0.00 0.00 0.00 54 1010.3
20260504204536 25 287 0.0 4.8 0.00 0.00 0.00 52 1010.7
20260504203037 25 91 3.2 8.0 0.00 0.00 0.00 52 1011.0
20260504201536 25 264 3.2 9.7 0.00 0.00 0.00 51 1011.2
20260504200038 25 278 0.0 6.4 0.00 0.00 0.00 51 1011.6
20260504194536 24 254 0.0 12.9 0.00 0.00 0.00 55 1011.8
20260504193036 23 276 3.2 14.5 0.00 0.00 0.00 54 1012.1
20260504191537 24 292 1.6 4.8 0.00 0.00 0.00 51 1012.2
20260504190039 23 278 1.6 12.9 0.00 0.00 0.00 52 1012.4
20260504184535 23 97 1.6 8.0 0.00 0.00 0.00 53 1012.5
20260504183033 23 291 1.6 6.4 0.00 0.00 0.00 52 1012.8
20260504181538 23 188 1.6 9.7 0.00 0.00 0.00 55 1012.7
20260504180035 23 307 3.2 9.7 0.00 0.00 0.00 54 1012.9
20260504174538 23 266 1.6 6.4 0.00 0.00 0.00 54 1013.2
20260504173038 23 259 0.0 11.3 0.00 0.00 0.00 55 1013.5
20260504171535 22 0 0.0 6.4 0.00 0.00 0.00 58 1013.5